This is the latest recevied weather packets stored in our database for station/object SQ7ACP-3. If no packets are shown the sender has not sent any weather packets the latest 10 day(s).
| Time | Temp. | Humidity | Pressure | Rain* | Wind** | Luminosity | Snow |
|---|---|---|---|---|---|---|---|
| 1777632261 | 18.33° C | 41% | 1025 hPa | 0 mm | - | - | - |
| 1777631661 | 18.33° C | 42% | 1025 hPa | 0 mm | - | - | - |
| 1777631049 | 18.33° C | 43% | 1025 hPa | 0 mm | - | - | - |
| 1777630448 | 17.78° C | 43% | 1024.9 hPa | 0 mm | - | - | - |
| 1777629849 | 17.78° C | 44% | 1024.9 hPa | 0 mm | - | - | - |
| 1777628636 | 16.67° C | 45% | 1025.1 hPa | 0 mm | - | - | - |
| 1777628036 | 16.67° C | 44% | 1025.2 hPa | 0 mm | - | - | - |
| 1777627424 | 16.11° C | 44% | 1025.3 hPa | 0 mm | - | - | - |
| 1777626823 | 16.11° C | 44% | 1025.3 hPa | 0 mm | - | - | - |
| 1777626224 | 15.56° C | 45% | 1025.3 hPa | 0 mm | - | - | - |
| 1777625011 | 15° C | 45% | 1025.5 hPa | 0 mm | - | - | - |
| 1777624399 | 15° C | 45% | 1025.4 hPa | 0 mm | - | - | - |
| 1777623786 | 15° C | 44% | 1025.4 hPa | 0 mm | - | - | - |
| 1777623186 | 15° C | 44% | 1025.4 hPa | 0 mm | - | - | - |
| 1777622574 | 15° C | 44% | 1025.5 hPa | 0 mm | - | - | - |
| 1777621964 | 15° C | 43% | 1025.5 hPa | 0 mm | - | - | - |
| 1777621349 | 15° C | 42% | 1025.6 hPa | 0 mm | - | - | - |
| 1777620736 | 14.44° C | 43% | 1025.5 hPa | 0 mm | - | - | - |
| 1777620136 | 13.89° C | 46% | 1025.4 hPa | 0 mm | - | - | - |
| 1777619524 | 13.89° C | 49% | 1025.5 hPa | 0 mm | - | - | - |
| 1777618911 | 13.33° C | 50% | 1025.5 hPa | 0 mm | - | - | - |
| 1777618311 | 12.78° C | 52% | 1025.5 hPa | 0 mm | - | - | - |
| 1777617699 | 12.78° C | 54% | 1025.5 hPa | 0 mm | - | - | - |
| 1777617099 | 12.22° C | 55% | 1025.6 hPa | 0 mm | - | - | - |
| 1777616503 | 11.67° C | 57% | 1025.5 hPa | 0 mm | - | - | - |
* Rain latest hour (hover to see other rain measurements)
** Current wind speed in m/s (hover to see current wind gust speed)